Lapse_Rate
1.1 2.9 0.4 2.7 6.3 6.5 6.5 6.5 6.5 6.5 6.5 5.2 6.2 6.4 6.5 5.8 6.5 6.5 4.3 1.6 1.2 -0.2 -0.8 -0.3 -0.3 0.0 0.6 1.4 2.1 2.5 2.9 3.2 3.3 3.4 3.5 3.2 3.3 3.3 3.3 3.5 3.7 4.0 4.2 4.3 4.4 4.3 4.2 3.9 3.9
0.7 3.6 3.0 3.0 6.5 6.5 6.5 6.5 6.5 6.5 5.4 5.7 6.3 6.4 6.5 6.5 6.8 6.3 3.9 2.9 1.5 -0.0 -0.4 -0.8 -0.5 -0.1 0.7 1.3 2.0 2.6 3.0 3.3 3.5 3.6 3.7 3.4 3.4 3.5 3.5 3.6 3.7 3.9 4.2 4.5 4.5 4.4 4.0 3.7 4.0
1.0 3.7 3.2 6.5 6.5 6.5 6.5 6.5 6.5 6.1 5.8 5.9 5.9 6.2 6.6 6.6 6.3 6.3 4.5 3.3 2.1 1.5 0.4 -0.5 -0.3 0.1 0.5 1.1 1.6 2.4 2.9 3.3 3.6 3.7 3.8 3.5 3.6 3.7 3.7 3.7 3.8 4.0 4.3 4.6 4.6 4.2 3.7 3.9 4.1
3.3 2.6 2.4 6.5 6.5 6.5 6.5 6.5 5.9 6.1 6.3 6.0 4.5 6.5 6.9 6.8 6.5 5.8 5.5 4.0 3.0 2.7 0.8 -0.4 0.1 0.4 0.8 1.3 1.7 2.2 2.6 3.1 3.4 3.7 3.9 3.7 3.7 3.8 3.8 4.0 4.2 4.3 4.4 4.4 4.3 4.0 3.9 3.9 4.0
2.8 2.0 6.5 6.5 6.5 6.5 6.5 5.9 5.9 6.5 6.0 6.1 5.8 6.6 6.5 7.0 6.2 6.0 5.9 5.2 3.5 2.5 0.4 0.0 0.6 0.9 1.2 1.5 1.8 2.1 2.5 2.9 3.4 3.8 4.0 3.9 3.9 3.9 4.0 4.0 4.2 4.3 4.3 4.1 3.7 3.8 3.9 3.9 4.0
3.4 2.0 6.5 6.5 6.5 6.5 6.4 4.4 5.3 6.1 5.9 6.4 6.7 6.8 6.4 7.1 6.6 6.4 4.9 3.1 2.7 1.3 0.9 0.9 1.3 1.4 1.6 1.8 2.1 2.3 2.6 2.9 3.5 3.9 4.1 3.9 4.0 3.9 3.9 3.9 4.1 4.1 4.1 4.0 4.0 3.8 3.8 3.9 3.8
5.3 6.5 6.5 6.5 6.5 6.5 6.5 5.5 5.9 6.0 5.9 6.1 6.5 6.5 6.3 6.6 6.3 5.2 3.7 2.9 3.1 2.8 1.8 1.0 1.4 1.8 2.0 2.1 2.3 2.4 2.7 3.1 3.6 4.0 4.0 4.0 4.0 3.9 3.8 3.9 4.0 4.2 4.2 4.2 4.2 4.1 3.9 3.7 3.7
2.9 5.9 6.5 6.5 6.5 6.5 6.4 6.0 5.4 5.2 6.4 7.3 6.9 6.4 6.1 6.6 6.1 4.8 4.3 3.6 2.9 2.6 2.4 2.0 1.8 1.7 1.9 2.0 2.6 2.7 3.0 3.3 3.7 3.9 3.8 4.1 3.9 3.9 3.8 3.9 4.1 4.4 4.4 4.4 4.6 4.5 4.2 4.0 3.8
6.2 6.5 6.5 6.5 6.5 6.5 6.2 6.4 6.3 6.2 6.2 6.9 6.3 5.3 5.6 5.9 5.7 5.0 4.4 4.4 3.5 3.0 2.4 2.0 1.7 2.2 2.3 2.1 2.6 2.9 3.2 3.5 3.6 3.6 3.8 3.8 3.7 3.8 4.1 4.2 4.6 4.8 4.7 4.8 5.1 5.2 4.7 4.5 4.0
4.6 6.5 6.5 6.4 6.4 6.5 6.1 5.9 5.7 6.1 6.1 6.2 5.6 5.8 5.5 5.4 4.9 4.8 4.9 4.3 3.6 1.6 1.4 1.7 1.0 2.3 3.0 4.1 2.5 2.6 3.0 3.0 3.2 3.4 3.4 3.7 4.0 4.3 4.8 4.9 5.4 5.5 5.3 4.6 4.3 6.2 6.9 6.5 4.9
4.7 6.5 6.5 6.3 5.5 5.0 6.0 6.3 6.5 5.9 6.5 5.3 5.3 5.7 5.5 5.4 4.7 4.1 3.7 4.5 3.5 3.1 3.0 2.5 2.4 3.0 3.5 4.4 2.9 2.9 2.8 3.1 3.6 4.0 3.7 4.3 4.8 5.4 5.2 5.4 4.7 3.4 2.7 2.3 3.3 3.8 4.0 6.7 6.4
6.4 5.9 5.9 6.2 5.8 5.9 6.2 5.6 5.9 5.8 6.3 4.9 5.1 5.5 6.7 6.3 5.5 3.7 3.7 3.3 3.8 3.7 3.8 3.1 3.5 3.5 3.4 3.5 4.5 4.0 3.8 3.7 3.5 4.0 4.4 4.7 4.9 4.7 2.5 2.3 2.0 1.0 0.9 1.6 2.1 2.8 3.3 4.4 6.2
6.5 6.4 5.1 6.3 6.1 5.9 5.7 5.9 6.3 5.7 5.2 4.9 5.4 6.2 6.6 5.6 6.4 5.1 3.6 3.5 2.5 4.2 4.5 3.8 3.7 3.7 4.2 4.3 5.0 4.6 4.6 4.7 4.9 5.2 5.5 5.5 3.7 1.4 1.3 0.9 0.9 0.6 1.5 1.7 1.9 2.6 3.8 4.3 4.3
6.1 5.6 5.2 5.3 5.0 5.6 6.2 5.9 5.8 5.4 4.6 4.8 5.3 5.7 5.3 7.0 6.8 3.6 2.3 2.3 4.3 4.7 4.7 4.3 4.0 4.1 4.2 5.4 5.4 3.9 3.1 3.1 2.8 2.6 2.9 2.9 1.5 1.0 0.8 1.2 1.1 1.4 1.7 2.3 2.5 3.1 3.7 4.8 3.3
5.7 6.5 6.4 5.7 4.9 6.3 5.6 6.5 6.5 4.5 4.7 5.7 5.7 4.9 5.5 7.0 3.9 2.3 2.3 3.2 4.1 4.8 4.8 4.6 3.3 2.6 3.7 3.6 2.4 2.7 2.6 2.0 1.6 1.8 2.0 1.9 2.1 2.0 1.5 1.3 1.5 2.2 2.9 3.6 4.5 4.0 4.3 3.2 2.6
6.5 6.5 6.5 6.5 6.0 5.4 5.5 6.5 6.5 4.2 4.3 4.6 4.4 4.4 4.7 5.6 3.2 3.0 3.2 3.5 4.3 4.6 4.0 4.4 4.3 2.1 1.1 1.0 1.3 1.6 1.0 1.1 0.9 1.2 1.7 2.1 2.2 2.0 1.9 2.2 2.1 2.5 2.7 3.3 5.7 4.8 3.4 2.4 1.7
6.5 6.5 6.5 6.5 5.8 6.5 6.5 6.5 6.5 4.0 4.7 4.1 4.7 4.3 4.1 3.8 3.0 3.0 2.6 1.3 2.4 3.6 3.6 2.7 1.7 0.0 -0.5 -0.1 0.4 1.3 1.6 1.1 1.5 1.7 1.9 1.9 1.8 2.3 2.7 2.8 2.5 3.7 4.0 3.6 4.0 3.9 2.6 1.7 1.2
6.5 6.5 6.5 6.5 6.5 6.5 6.5 6.5 6.5 4.7 4.6 4.2 3.0 3.8 3.7 3.8 3.0 2.9 2.2 2.2 2.4 3.5 3.2 1.3 0.1 -0.7 -1.0 -0.3 0.7 1.1 1.7 2.1 2.6 2.3 1.8 1.8 1.5 2.3 2.6 2.4 2.8 3.7 3.1 2.8 3.4 3.8 2.9 2.0 1.6
6.5 6.5 6.5 6.5 6.5 6.5 6.5 6.5 6.5 5.7 4.8 4.2 3.3 3.4 3.8 2.7 2.5 1.9 1.6 1.1 1.0 1.5 0.3 -0.0 -1.0 -0.9 -0.2 0.7 1.4 1.6 2.0 2.5 2.5 2.0 1.6 1.3 2.1 2.8 2.6 2.5 2.6 2.8 2.3 2.9 3.9 4.8 3.1 1.6 0.9
6.5 6.5 6.5 6.5 6.5 6.5 6.5 6.5 6.5 6.5 5.7 4.0 3.5 3.3 3.1 3.5 2.2 1.7 1.1 1.3 2.1 1.7 1.3 0.7 0.2 -0.1 0.5 1.5 1.4 1.5 2.0 2.6 3.0 0.6 0.1 1.5 2.3 2.7 2.4 2.3 1.3 1.8 2.0 2.4 3.4 4.3 4.5 2.6 1.2
6.5 6.5 6.5 6.5 6.5 6.5 6.5 6.5 6.5 6.4 5.0 5.1 3.6 3.4 3.9 3.4 2.2 1.9 1.2 2.2 2.9 2.3 1.6 1.3 0.9 0.8 1.6 2.2 2.0 2.2 2.7 2.9 1.0 -0.5 -0.3 0.9 2.1 2.4 2.4 2.2 1.7 1.2 0.8 1.6 2.2 2.8 3.9 4.3 3.5
6.5 6.5 6.5 6.5 6.5 6.5 6.5 6.5 6.5 6.5 6.5 6.5 4.6 3.7 2.2 4.5 3.0 2.4 1.0 2.7 2.2 2.0 1.5 1.1 1.2 2.1 2.5 2.7 2.2 2.5 2.1 1.7 0.6 0.2 0.1 0.3 1.7 2.1 2.3 2.4 2.4 2.1 1.9 2.2 2.3 3.0 3.1 3.5 4.0
6.5 6.5 6.5 6.5 6.5 6.5 6.5 6.5 6.5 6.5 6.5 6.5 5.7 3.8 4.0 3.4 2.9 1.8 0.8 2.2 3.0 1.8 1.0 1.4 2.3 3.1 3.1 3.1 3.2 3.4 3.7 2.3 0.9 0.5 0.9 1.0 1.0 2.2 2.7 3.0 2.8 2.4 2.0 1.9 2.1 2.0 2.5 2.3 2.8
6.5 6.5 6.5 6.5 6.5 6.5 6.5 6.5 6.5 6.5 6.5 6.5 5.9 3.9 4.4 3.9 3.4 2.4 2.7 2.5 2.7 2.6 2.1 2.3 3.1 3.5 4.1 4.5 4.9 4.7 3.7 2.2 1.5 1.2 1.1 0.9 1.2 1.3 2.6 3.3 2.8 2.9 2.0 1.8 2.8 3.1 3.5 3.3 3.2
6.5 6.5 6.5 6.5 6.5 6.5 6.5 6.5 6.5 6.5 6.5 6.5 6.5 5.6 4.5 4.3 4.0 3.2 3.1 2.5 1.8 2.1 2.2 3.1 4.0 4.4 4.6 5.4 5.4 5.4 5.4 3.4 2.7 2.2 1.8 1.6 1.6 1.4 1.5 2.0 1.9 1.8 3.0 3.2 3.2 2.9 3.5 3.4 3.4
6.5 6.5 6.5 6.5 6.5 6.5 6.5 6.5 6.5 6.5 6.0 4.8 5.9 5.1 4.8 4.9 4.6 3.3 3.7 2.5 1.8 2.4 3.2 4.7 4.5 5.5 5.5 5.6 6.2 6.2 4.8 4.3 4.2 3.7 2.8 3.0 3.2 2.9 2.0 2.5 3.4 3.7 3.8 4.0 4.1 3.0 3.0 3.3 3.2
6.5 6.5 6.5 6.5 6.5 6.5 6.5 6.5 6.5 6.5 6.5 6.2 6.0 5.8 4.6 4.5 4.5 4.2 4.6 3.3 2.7 2.5 2.6 3.0 4.7 5.5 5.2 4.9 4.6 4.6 4.8 4.6 4.1 3.6 3.6 3.5 3.5 4.0 2.8 3.0 2.9 3.5 3.6 4.2 3.7 3.3 4.0 3.5 4.1
6.5 6.5 6.5 6.5 6.5 6.5 6.5 6.5 6.5 6.5 6.5 6.5 6.5 5.9 5.0 4.7 4.9 4.8 5.0 3.9 3.3 2.9 3.9 3.3 4.2 5.1 5.1 4.9 4.6 5.0 4.7 4.8 4.3 3.6 4.0 4.3 3.5 3.9 3.6 3.5 3.7 4.3 4.4 4.6 4.0 3.8 4.3 4.3 4.2
6.5 6.5 6.5 6.5 6.5 6.5 6.5 6.5 6.5 6.5 6.5 6.5 6.5 6.1 5.5 4.9 5.0 4.0 4.9 4.2 3.8 3.9 4.6 4.0 4.2 4.6 4.4 4.1 4.3 4.4 4.4 4.8 4.1 4.0 4.1 4.3 4.2 3.7 3.9 4.2 4.3 4.7 4.8 4.7 4.3 4.2 5.0 4.9 5.5
6.5 6.5 6.5 6.5 6.5 6.5 6.5 6.5 6.5 6.5 6.5 6.2 5.9 5.9 3.9 3.5 3.6 3.4 3.9 4.3 4.3 4.4 5.0 4.3 4.0 3.8 3.3 3.3 3.9 4.0 4.1 4.2 4.0 4.1 4.4 4.3 4.6 4.8 4.9 5.1 5.6 5.9 5.9 5.0 5.0 4.8 5.8 5.2 4.9
Wind_Speed
9 10 2 4 4 4 5 7 2 8 8 3 9 16 14 5 6 7 5 17 19 15 19 20 21 20 21 22 21 20 19 18 16 15 15 14 13 12 12 12 11 10 10 10 9 10 10 9 8
6 5 2 1 3 1 4 2 11 8 7 5 13 15 16 11 7 7 8 14 18 17 17 18 21 21 20 21 21 20 19 18 17 16 15 14 13 11 11 11 10 9 8 8 8 8 8 6 4
3 3 2 4 4 4 3 3 9 4 5 3 5 9 5 3 9 3 12 17 17 14 17 18 20 20 20 21 22 20 19 19 18 17 15 14 13 11 10 10 9 8 8 7 7 6 6 5 2
1 4 4 1 6 7 6 4 7 8 2 6 12 9 5 5 3 8 17 18 16 13 15 20 20 19 18 19 20 20 19 19 19 18 16 14 13 11 10 9 8 8 7 7 6 5 4 3 1
0 1 1 4 6 5 5 5 3 6 6 7 10 6 6 4 9 8 11 16 15 11 16 17 20 19 18 18 19 19 19 19 18 17 16 14 12 11 10 8 7 7 7 6 6 4 3 1 2
3 2 2 4 6 4 4 6 6 10 11 12 16 9 4 6 7 6 9 11 14 13 14 16 18 18 18 18 18 18 19 18 17 16 15 13 12 11 9 8 7 6 6 5 4 4 4 4 4
5 2 5 6 3 5 1 3 6 9 8 6 6 6 3 7 7 8 11 11 12 13 12 12 14 16 17 17 17 18 18 18 17 15 14 12 11 10 9 7 6 5 5 3 4 5 6 6 7
4 5 6 3 2 2 2 3 5 7 4 0 4 5 3 4 9 9 9 10 11 9 9 10 12 14 14 15 17 17 18 18 17 15 14 12 11 10 9 7 6 4 5 4 5 7 8 9 9
2 3 4 4 5 2 2 2 2 5 5 2 6 8 9 10 10 8 7 6 12 9 10 10 10 12 14 14 13 16 17 17 17 16 14 13 12 12 10 10 9 7 4 3 7 10 12 13 12
5 4 4 2 2 2 3 5 5 4 4 2 7 7 9 11 8 11 10 11 11 13 13 12 11 10 14 12 15 14 13 15 15 14 15 14 14 11 10 11 10 9 1 7 18 25 25 19 14
6 7 4 2 3 5 3 1 1 5 2 4 7 7 7 6 8 10 11 15 17 14 11 12 12 15 12 9 12 10 12 12 14 17 16 16 9 6 3 4 9 15 20 16 17 20 24 30 15
2 4 4 3 4 2 4 4 5 3 2 7 8 7 4 2 4 8 9 10 14 16 15 15 14 13 11 12 11 12 10 13 11 12 15 10 5 5 11 10 12 12 12 17 15 15 26 22 8
5 3 6 2 3 5 5 4 4 4 6 6 9 8 3 5 4 6 6 9 20 17 15 16 15 13 9 9 9 11 9 9 8 9 14 11 8 5 9 7 6 4 5 11 10 9 3 8 9
2 5 7 5 7 5 6 5 2 7 10 7 8 8 6 3 3 6 9 9 11 17 16 15 13 11 9 6 5 5 10 12 12 11 13 15 12 8 7 6 4 1 6 5 10 6 3 6 10
5 3 8 8 8 6 4 4 9 8 6 7 6 9 8 4 8 8 6 7 7 15 17 15 12 9 8 8 8 9 11 13 10 11 14 17 16 11 7 4 2 4 5 8 5 7 9 6 11
0 2 2 7 11 8 9 6 13 13 11 9 9 6 8 6 8 8 8 7 7 8 16 14 11 9 10 10 8 9 10 11 10 12 13 13 11 10 6 4 4 5 6 3 2 5 7 8 6
5 4 8 8 9 7 6 6 2 9 10 9 8 7 8 9 9 8 10 9 8 12 12 13 12 11 11 9 9 10 10 8 10 12 10 8 7 5 5 5 5 5 3 1 3 4 5 7 6
6 6 5 8 3 7 8 8 7 7 6 10 9 7 9 9 8 8 11 11 8 12 11 10 9 11 10 7 7 7 5 5 8 8 9 7 7 6 5 4 3 4 2 3 4 5 4 5 7
5 5 7 6 5 2 8 8 9 6 6 7 9 9 9 13 9 8 10 10 9 10 11 10 11 8 8 5 4 5 3 3 3 7 9 8 7 7 6 5 4 4 3 3 4 3 7 4 4
12 12 8 9 4 4 7 8 7 6 7 9 10 9 10 11 11 9 8 8 7 8 7 9 9 8 5 5 3 3 4 2 3 6 7 7 7 5 6 6 4 4 3 5 4 4 2 2 5
13 13 6 7 7 6 3 5 5 7 9 6 7 10 10 15 13 9 8 7 7 5 5 7 7 7 6 8 7 5 4 4 3 2 2 3 5 6 6 6 5 4 4 3 2 3 3 1 2
13 4 4 5 5 6 3 7 5 7 9 9 10 8 10 14 11 9 8 6 6 5 5 6 8 8 8 10 9 12 5 4 3 4 3 4 7 6 6 6 4 4 3 3 1 1 2 2 1
6 6 2 1 2 3 1 4 5 8 4 10 10 10 13 14 14 12 9 8 7 7 6 6 6 8 9 7 8 7 6 3 3 3 6 4 4 7 6 5 5 3 3 2 3 1 1 1 2
8 6 3 3 1 5 6 7 6 8 12 7 8 10 13 14 12 12 10 9 9 7 7 6 7 7 9 8 9 8 10 7 5 4 4 4 4 4 8 8 7 7 4 4 2 2 2 1 1
6 8 2 2 2 8 13 11 15 6 10 17 16 15 15 15 14 14 13 10 9 10 9 8 8 9 10 9 9 10 10 9 9 8 6 6 4 3 6 7 6 3 5 5 5 3 3 2 2
9 11 6 8 5 6 11 6 6 14 18 13 19 18 16 16 15 15 13 11 9 11 10 10 11 11 10 8 9 7 7 6 7 8 5 6 7 7 7 7 8 8 8 7 6 2 3 4 2
8 11 7 3 1 2 5 4 5 4 8 17 16 17 14 15 15 15 14 13 10 10 11 10 12 11 9 8 6 7 7 7 7 9 6 6 5 5 7 8 7 7 9 8 5 3 3 4 3
9 9 7 5 5 6 3 5 6 5 11 14 17 17 15 15 15 13 15 14 13 11 11 9 9 10 9 9 7 6 7 6 6 6 7 7 6 8 10 8 7 7 6 7 6 5 4 5 3
13 11 8 8 9 6 1 6 7 11 16 19 20 18 17 15 13 10 14 15 15 13 12 10 8 9 9 8 7 7 7 7 7 6 6 6 5 7 7 7 7 6 6 6 6 6 5 6 6
26 26 22 6 6 6 5 6 4 1 16 17 12 12 9 9 9 9 11 13 13 14 12 9 7 7 8 7 7 7 7 6 6 6 6 5 6 4 6 5 5 6 6 7 7 7 6 6 6
Wind_Direction
320 300 147 22 41 73 263 284 257 60 58 51 47 81 87 73 67 132 133 108 118 131 142 139 144 143 144 144 145 144 143 141 135 129 123 117 109 103 98 93 88 86 88 91 93 95 93 88 87
321 310 69 281 98 346 276 326 60 78 117 121 93 95 71 71 54 104 112 132 134 140 144 145 149 144 142 145 147 146 143 142 139 136 130 124 121 116 109 101 95 92 93 95 96 99 100 96 89
308 216 84 152 173 198 221 84 102 94 133 186 94 81 65 46 51 96 121 136 136 141 146 146 145 141 144 146 147 148 146 146 144 142 136 133 130 124 118 113 109 108 103 104 107 111 110 107 69
266 345 337 105 249 279 143 53 137 123 24 38 101 78 76 24 98 147 129 137 134 141 135 145 144 141 140 143 147 149 151 152 151 148 142 141 137 133 130 120 114 111 108 110 109 118 126 122 117
162 337 266 238 270 246 56 7 59 113 108 56 78 72 91 61 101 127 125 136 136 130 135 145 146 140 140 144 150 152 154 155 153 151 147 146 141 138 135 132 130 124 122 125 132 139 154 202 290
330 121 357 287 292 210 37 9 48 62 72 98 101 98 71 111 100 135 108 104 126 131 138 143 144 142 143 146 149 155 157 156 154 151 149 149 146 147 149 150 141 147 148 144 157 172 206 247 264
179 88 247 277 301 342 116 54 41 71 57 35 60 99 114 92 136 108 100 112 112 119 123 125 136 142 146 147 152 157 159 156 153 150 152 152 148 154 162 162 170 165 169 176 204 215 226 233 253
147 131 293 290 180 193 299 81 84 68 69 211 116 123 158 167 132 114 105 113 110 116 123 130 134 137 142 146 158 158 158 154 152 155 159 152 160 172 174 178 187 190 209 204 251 260 255 252 256
360 36 281 311 36 161 340 111 57 161 97 73 109 127 160 154 136 128 129 122 124 136 142 143 141 148 149 150 157 159 159 157 157 164 161 165 176 188 189 195 197 192 173 230 277 280 273 269 267
127 133 250 102 61 10 156 130 156 110 142 208 76 94 141 154 157 161 169 167 161 158 157 153 148 156 158 158 157 158 156 159 166 168 170 182 196 199 205 211 203 189 151 360 3 326 301 273 273
222 208 284 163 95 358 315 324 21 98 353 88 142 149 153 165 185 181 191 179 180 155 157 158 155 159 173 157 162 164 165 167 178 182 184 196 201 209 116 149 69 82 84 67 50 340 328 281 263
181 261 236 178 137 22 320 330 348 47 213 152 114 107 78 304 245 215 226 186 164 168 160 162 162 165 170 155 168 177 168 181 186 193 182 176 178 107 87 113 140 122 128 112 108 39 327 299 338
170 252 301 203 173 190 265 281 248 288 271 148 127 109 208 252 19 350 11 256 164 164 159 160 163 167 157 155 179 183 179 177 178 165 177 165 105 113 124 123 86 102 219 135 126 115 184 326 46
69 10 312 308 296 241 224 250 176 240 232 158 150 163 215 140 126 45 24 4 165 155 159 159 158 164 134 139 129 106 97 103 99 100 115 113 121 125 110 128 119 138 173 165 165 168 220 108 89
29 353 310 266 246 247 189 292 237 210 133 164 193 192 173 159 85 87 55 15 44 157 154 155 148 137 124 94 95 93 99 94 98 102 116 129 134 140 110 108 200 208 163 139 123 244 107 86 86
154 195 258 256 214 228 134 252 265 202 155 186 227 218 169 176 118 75 50 17 52 143 145 142 138 119 103 107 103 102 100 110 111 114 123 124 124 123 127 175 207 211 231 248 168 100 92 92 74
241 221 214 288 227 155 148 228 217 122 152 188 202 207 140 121 89 71 47 21 345 149 137 125 117 110 110 104 104 100 100 106 119 122 119 106 108 121 144 140 137 165 138 77 81 82 113 105 100
209 212 242 245 266 135 181 232 258 191 180 197 208 186 144 130 118 85 54 29 30 122 121 98 106 108 103 99 96 89 82 86 112 106 113 118 121 127 106 101 56 46 45 33 52 78 79 122 114
277 273 267 269 289 29 204 229 230 232 298 279 184 165 150 121 115 85 73 54 30 53 99 109 112 117 121 117 114 97 116 116 103 107 119 117 120 105 115 122 95 45 68 97 72 96 103 96 128
241 257 261 289 286 269 268 249 217 225 235 239 187 179 155 132 109 99 93 86 69 69 81 97 111 122 122 126 126 120 140 148 99 108 109 131 130 127 100 109 89 73 73 44 49 58 142 121 196
226 229 230 235 313 295 326 266 247 262 252 252 180 164 157 144 131 124 117 123 105 93 103 122 138 138 138 137 114 108 102 96 90 92 111 158 128 114 117 120 123 101 96 93 75 56 52 357 226
233 215 257 273 271 261 83 289 252 240 271 178 162 146 122 129 124 131 130 125 128 128 128 143 148 153 155 149 142 156 151 145 157 167 169 179 152 141 143 136 108 77 64 55 25 116 139 111 302
237 178 125 0 316 354 331 298 220 242 230 173 165 153 140 140 143 142 140 150 153 153 157 156 155 157 159 153 155 156 141 151 152 158 163 144 145 158 165 152 139 155 168 190 186 146 165 131 147
180 123 73 14 61 272 200 209 239 211 230 193 168 149 148 140 139 129 134 144 168 153 152 161 167 165 162 166 176 179 159 158 147 169 154 159 163 181 189 180 184 197 188 182 190 175 155 185 115
129 110 93 262 190 237 184 214 238 250 243 184 173 155 150 147 143 142 153 164 168 164 161 166 172 177 184 198 202 191 176 163 168 166 168 165 171 194 200 184 191 189 190 189 176 180 189 193 173
178 170 168 190 196 250 206 228 242 216 238 184 161 159 150 151 154 157 164 163 164 166 168 173 174 183 199 210 193 191 165 165 170 174 177 182 188 191 183 181 187 197 193 184 176 176 209 198 203
192 205 188 353 259 34 225 294 324 87 138 143 148 154 159 158 163 164 167 164 167 171 177 184 183 191 194 198 193 173 172 158 174 186 179 189 173 178 176 184 185 191 181 182 182 198 228 181 182
174 146 186 218 208 225 226 213 227 175 155 151 156 168 168 163 168 168 165 164 167 172 189 197 193 188 179 171 167 172 169 172 163 163 170 153 163 161 171 181 185 185 183 185 182 209 226 195 194
203 205 201 173 215 182 172 253 221 193 177 173 180 176 168 168 173 162 166 168 165 176 193 200 190 173 171 171 177 172 183 180 156 167 176 167 157 152 166 180 184 189 191 195 189 209 215 205 199
204 208 202 192 188 225 158 247 214 75 199 178 170 165 165 156 162 161 163 164 168 180 185 186 174 163 182 171 166 167 167 161 155 161 168 162 159 159 164 176 183 193 198 197 204 203 205 198 201